Weather History for MWCR - November, 2012

Change the Weather History Date:

Tuesday, November 6, 2012

  Actual Average Record
Temperature  
Mean Temperature 80 °F -  
Max Temperature 86 °F 83 °F 89 °F (2003)
Min Temperature 75 °F 75 °F 68 °F (2000)
Cooling Degree Days 16    
Growing Degree Days 30 (Base 50)    
Moisture  
Dew Point 74 °F    
Average Humidity 79    
Maximum Humidity 94    
Minimum Humidity 61    
Precipitation  
Precipitation 0.00 in - - ()
Sea Level Pressure  
Sea Level Pressure 29.92 in    
Wind  
Wind Speed 3 mph ()    
Max Wind Speed 9 mph    
Max Gust Speed -    
Visibility 6.2 miles    
Events      
Averages and records for this station are not official NWS values.
T = Trace of Precipitation, MM = Missing Value Source: Averaged Metar Reports

Daily Weather History Graph

Daily Weather History Graph

Search for Another Location

Airport or City:

Trip Planner

Search our weather history database for the weather conditions in past years. The results will help you decide how hot, cold, wet, or windy it might be!

Date:

Astronomy

Nov. 06, 2012 Rise Set
Actual Time 6:28 AM EST 5:49 PM EST
Civil Twilight 6:05 AM EST 6:12 PM EST
Nautical Twilight 5:39 AM EST 6:38 PM EST
Astronomical Twilight 5:13 AM EST 7:04 PM EST
Moon No Moon Rise 12:26 PM EST
Length of Visible Light 12h 06m
Length of Day
11h 20m
Waning Gibbous, 53% of the Moon is Illuminated
Nov 6
Waning Gibbous
Nov 6
Last Quarter
Nov 13
New
Nov 20
First Quarter
Nov 28
Full

Hourly Weather History & Observations

Time (EST) Temp. Heat Index Dew Point Humidity Pressure Visibility Wind Dir Wind Speed Gust Speed Precip Events Conditions
6:00 AM 75.2 °F - 73.4 °F 94% 29.92 in 6.2 mi Calm Calm - N/A   Scattered Clouds
7:00 AM 76 °F - 74 °F 94% 29.94 in 6 mi East 2.3 mph - -  
7:00 AM 75.2 °F - 73.4 °F 94% 29.92 in 6.2 mi East 2.3 mph - N/A   Mostly Cloudy
8:00 AM 80.6 °F 85.4 °F 73.4 °F 79% 29.92 in 6.2 mi East 3.5 mph - N/A   Mostly Cloudy
9:00 AM 84.2 °F 90.9 °F 73.4 °F 70% 29.95 in 6.2 mi East 6.9 mph - N/A   Mostly Cloudy
10:00 AM 84.2 °F 90.9 °F 73.4 °F 70% 29.95 in 6.2 mi ESE 4.6 mph - N/A   Scattered Clouds
11:00 AM 84.2 °F 92.3 °F 75.2 °F 74% 29.95 in 6.2 mi Variable 4.6 mph - N/A   Partly Cloudy
12:00 PM 84.2 °F 92.3 °F 75.2 °F 74% 29.92 in 6.2 mi NE 9.2 mph - N/A   Scattered Clouds
1:00 PM 86 °F - 74 °F 61% 29.92 in 6 mi NE 6.9 mph - -  
1:00 PM 86.0 °F 95.1 °F 75.2 °F 70% 29.92 in 6.2 mi NE 6.9 mph - N/A   Mostly Cloudy
2:51 PM 84.2 °F 92.3 °F 75.2 °F 74% 29.89 in 6.2 mi NNE 6.9 mph - N/A   Mostly Cloudy
3:55 PM 82.4 °F 89.5 °F 75.2 °F 79% 29.89 in 6.2 mi NE 5.8 mph - N/A   Mostly Cloudy
4:53 PM 82.4 °F 89.5 °F 75.2 °F 79% 29.89 in 6.2 mi North 5.8 mph - N/A   Mostly Cloudy
5:52 PM 82.4 °F 89.5 °F 75.2 °F 79% 29.89 in 6.2 mi North 5.8 mph - N/A   Mostly Cloudy
6:51 PM 80.6 °F 85.4 °F 73.4 °F 79% 29.92 in 6.2 mi Variable 3.5 mph - N/A   Mostly Cloudy
7:00 PM 81 °F - 74 °F 72% 29.92 in 6 mi 3.5 mph - -   Scattered Clouds
7:51 PM 80.6 °F 86.2 °F 75.2 °F 84% 29.92 in 6.2 mi Variable 2.3 mph - N/A   Scattered Clouds
8:53 PM 78.8 °F - 75.2 °F 89% 29.95 in 6.2 mi Calm Calm - N/A   Scattered Clouds
9:50 PM 78.8 °F - 75.2 °F 89% 29.95 in 6.2 mi Calm Calm - N/A   Scattered Clouds